(490116) = 2008 UE67 = 2012 SG12

Discovered at Kitt Peak on 2008-10-21 by Spacewatch.

Orbit

Orbit type: Main Belt

Note: WebGL enabled browser required.

epoch2022-01-21.0
epoch JD2459600.5
perihelion date2020-12-31.13791
perihelion JD2459214.63791
argument of perihelion (°)343.28814
ascending node (°)9.48077
inclination (°)4.74085
eccentricity0.2679506
perihelion distance (AU)1.9002135
Tisserand w.r.t. Jupiter3.4
ΔV w.r.t. Earth (km/sec)8.8
semimajor axis (AU)2.5957448
mean anomaly (°)90.93749
mean daily motion (°/day)0.23567360
aphelion distance (AU)3.291
period (years)4.18
P-vector [x]0.99188450
P-vector [y]-0.10514084
P-vector [z]-0.07148811
Q-vector [x]0.12641129
Q-vector [y]0.87573229
Q-vector [z]0.46595400
absolute magnitude17.74
phase slope0.15
uncertainty0
referenceMPO 700737
observations used108
oppositions7
arc length (days)4853
first opposition used2008
last opposition used2022
residual rms (arc-secs)0.71
perturbers coarse indicatorM-v
perturbers precise indicator003Ek
first observation date used2008-10-21.0
last observation date used2022-02-03.0
computer namePan
JD of orbit computation2457849.359048
perihelion JD uncertainty (days)5.6470E-05
argument of perihelion uncertainty (°)5.3931E-05
ascending node uncertainty (°)4.0409E-05
inclination uncertainty (°)5.5512E-06
eccentricity uncertainty 4.1973E-07
perihelion distance uncertainty (AU)1.1897E-06
Minimum Orbit Intersection Distances (in AU)
for orbit epoch: 2459200.5, reference: E2021-B25
Mercury1.52333
Venus1.17334
Earth0.89346
Mars0.51134
Jupiter2.14111
Saturn6.09851
Uranus15.0499
Neptune27.2792

Observations

109 total observations over interval: 2008 10 21.32904 – 2022 02 03.303623
These data are available for download (format description).

Date (UT) J2000 RA J2000 Dec Magn Location Ref
2008 10 21.32904 03 38 41.02 +24 27 48.5 20.1 V 691 – Steward Observatory, Kitt Peak-Spacewatch MPS 261856
2008 10 21.34670 03 38 40.17 +24 27 50.3 20.3 V 691 – Steward Observatory, Kitt Peak-Spacewatch MPS 261856
2008 10 21.36437 03 38 39.34 +24 27 51.7 20.1 V 691 – Steward Observatory, Kitt Peak-Spacewatch MPS 261856
2008 10 25.26603 03 35 33.65 +24 32 19.3 20.2 V 691 – Steward Observatory, Kitt Peak-Spacewatch MPS 261856
2008 10 25.28373 03 35 32.70 +24 32 20.6 20.2 V 691 – Steward Observatory, Kitt Peak-Spacewatch MPS 261856
2008 10 25.30143 03 35 31.74 +24 32 21.5 20.3 V 691 – Steward Observatory, Kitt Peak-Spacewatch MPS 261856
2008 10 30.40882 03 30 51.04 +24 34 30.7 19.8 V G96 – Mt. Lemmon Survey MPS 263448
2008 10 30.41542 03 30 50.65 +24 34 30.7 19.6 V G96 – Mt. Lemmon Survey MPS 263448
2008 10 30.42201 03 30 50.25 +24 34 30.8 20.1 V G96 – Mt. Lemmon Survey MPS 263448
2008 10 30.42854 03 30 49.86 +24 34 30.6 20.0 V G96 – Mt. Lemmon Survey MPS 263448
2008 11 02.38153 03 27 52.99 +24 33 52.0   291 – LPL/Spacewatch II MPS 263448
2008 11 02.38934 03 27 52.49 +24 33 51.8   291 – LPL/Spacewatch II MPS 263448
2008 11 02.39698 03 27 52.00 +24 33 51.6   291 – LPL/Spacewatch II MPS 263448
2008 11 06.25778 03 23 50.01 +24 30 59.5 20.2 V 691 – Steward Observatory, Kitt Peak-Spacewatch MPS 264694
2008 11 06.27541 03 23 48.83 +24 30 58.9 19.8 V 691 – Steward Observatory, Kitt Peak-Spacewatch MPS 264694
2008 11 06.29304 03 23 47.64 +24 30 57.8 20.2 V 691 – Steward Observatory, Kitt Peak-Spacewatch MPS 264694
2008 11 18.15402 03 11 07.22 +24 09 58.0 19.6 V 703 – Catalina Sky Survey MPS 265341
2008 11 18.16128 03 11 06.86 +24 09 56.1 19.6 V 703 – Catalina Sky Survey MPS 265341
2008 11 18.16853 03 11 06.25 +24 09 55.7 20.7 V 703 – Catalina Sky Survey MPS 265341
2008 11 18.17572 03 11 05.78 +24 09 54.5 19.7 V 703 – Catalina Sky Survey MPS 265341
2008 12 01.28164 02 59 12.30 +23 34 31.3 20.3 V G96 – Mt. Lemmon Survey MPS 267662
2008 12 01.28830 02 59 11.97 +23 34 30.0 20.1 V G96 – Mt. Lemmon Survey MPS 267662
2008 12 01.29491 02 59 11.65 +23 34 28.9 20.3 V G96 – Mt. Lemmon Survey MPS 267662
2008 12 01.30166 02 59 11.32 +23 34 27.9 20.5 V G96 – Mt. Lemmon Survey MPS 267662
2012 09 17.23538 00 53 36.10 +04 41 26.9 19.8 V 691 – Steward Observatory, Kitt Peak-Spacewatch MPS 432073
2012 09 17.25311 00 53 35.33 +04 41 27.1 19.9 V 691 – Steward Observatory, Kitt Peak-Spacewatch MPS 432073
2012 09 17.27083 00 53 34.49 +04 41 27.0 19.5 V 691 – Steward Observatory, Kitt Peak-Spacewatch MPS 432073
2012 09 17.35054 00 53 30.94 +04 41 27.0 19.6 V G96 – Mt. Lemmon Survey MPS 431950
2012 09 17.35973 00 53 30.55 +04 41 27.0 19.7 V G96 – Mt. Lemmon Survey MPS 431950
2012 09 17.36899 00 53 30.12 +04 41 27.0 19.6 V G96 – Mt. Lemmon Survey MPS 431950
2012 09 17.37828 00 53 29.68 +04 41 27.0 19.5 V G96 – Mt. Lemmon Survey MPS 431950
2012 09 21.20956 00 50 39.70 +04 40 43.7 19.6 V 691 – Steward Observatory, Kitt Peak-Spacewatch MPS 432073
2012 09 21.23435 00 50 38.51 +04 40 43.2 19.7 V 691 – Steward Observatory, Kitt Peak-Spacewatch MPS 432073
2012 09 21.24952 00 50 37.75 +04 40 43.0 19.7 V 691 – Steward Observatory, Kitt Peak-Spacewatch MPS 432073
2012 09 22.25332 00 49 50.21 +04 40 19.3 19.4   704 – Lincoln Laboratory ETS, New Mexico MPS 433375
2012 09 22.26803 00 49 49.48 +04 40 18.2 20.0   704 – Lincoln Laboratory ETS, New Mexico MPS 433375
2012 09 22.28262 00 49 48.72 +04 40 18.7 19.7   704 – Lincoln Laboratory ETS, New Mexico MPS 433375
2012 09 22.29741 00 49 48.03 +04 40 17.5 19.5   704 – Lincoln Laboratory ETS, New Mexico MPS 433375
2012 09 22.31202 00 49 47.28 +04 40 17.2 19.7   704 – Lincoln Laboratory ETS, New Mexico MPS 433375
2012 10 04.23721 00 39 34.80 +04 30 51.1 18.9 R 926 – Tenagra II Observatory, Nogales MPS 434175
2012 10 04.24875 00 39 34.15 +04 30 50.5 18.8 R 926 – Tenagra II Observatory, Nogales MPS 434175
2012 10 04.26030 00 39 33.52 +04 30 49.7 19.1 R 926 – Tenagra II Observatory, Nogales MPS 434176
2012 10 05.29241 00 38 39.12 +04 29 49.2 19.2 V G96 – Mt. Lemmon Survey MPS 434176
2012 10 05.29913 00 38 38.72 +04 29 48.8 19.2 V G96 – Mt. Lemmon Survey MPS 434176
2012 10 05.30591 00 38 38.36 +04 29 48.6 19.1 V G96 – Mt. Lemmon Survey MPS 434176
2012 10 05.31274 00 38 37.93 +04 29 46.9 20.1 V G96 – Mt. Lemmon Survey MPS 434176
2012 10 06.33887 00 37 44.22 +04 28 48.1 18.8 V 703 – Catalina Sky Survey MPS 434176
2012 10 06.34564 00 37 43.75 +04 28 47.9 18.6 V 703 – Catalina Sky Survey MPS 434176
2012 10 06.35242 00 37 43.42 +04 28 48.2 19.0 V 703 – Catalina Sky Survey MPS 434176
2012 10 06.35918 00 37 43.10 +04 28 47.5 19.3 V 703 – Catalina Sky Survey MPS 434176
2012 11 12.19200 00 20 13.45 +04 49 27.4 20.6 V G96 – Mt. Lemmon Survey MPS 441781
2012 11 12.19984 00 20 13.41 +04 49 28.4 21.3 V G96 – Mt. Lemmon Survey MPS 441781
2012 11 12.20770 00 20 13.45 +04 49 30.0 20.7 V G96 – Mt. Lemmon Survey MPS 441781
2012 11 12.21553 00 20 13.45 +04 49 31.2 20.6 V G96 – Mt. Lemmon Survey MPS 441781
2015 04 18.22617 13 13 41.64 -09 32 06.8 22.3 V W84 – Cerro Tololo-DECam MPS 785232
2015 04 18.22940 13 13 41.45 -09 32 05.9   W84 – Cerro Tololo-DECam MPS 785232
2015 04 18.23264 13 13 41.27 -09 32 05.1   W84 – Cerro Tololo-DECam MPS 785232
2015 04 18.23588 13 13 41.09 -09 32 04.3   W84 – Cerro Tololo-DECam MPS 785232
2015 04 18.23913 13 13 40.91 -09 32 03.4   W84 – Cerro Tololo-DECam MPS 785232
2015 04 21.21762 13 11 02.33 -09 19 24.1 22.6 V W84 – Cerro Tololo-DECam MPS 785232
2015 04 21.22085 13 11 02.15 -09 19 23.0   W84 – Cerro Tololo-DECam MPS 785232
2015 04 21.22410 13 11 01.98 -09 19 22.2   W84 – Cerro Tololo-DECam MPS 785232
2015 04 21.22733 13 11 01.81 -09 19 21.5   W84 – Cerro Tololo-DECam MPS 785232
2015 04 21.23059 13 11 01.63 -09 19 20.6   W84 – Cerro Tololo-DECam MPS 785232
2016 08 01.41583 22 00 42.924 -20 13 41.13 19.9 w F51 – Pan-STARRS 1, Haleakala MPS 722003
2016 08 01.42555 22 00 42.507 -20 13 42.69 19.8 w F51 – Pan-STARRS 1, Haleakala MPS 722003
2016 08 01.43528 22 00 42.086 -20 13 44.30 19.8 w F51 – Pan-STARRS 1, Haleakala MPS 722003
2016 08 01.44499 22 00 41.668 -20 13 45.88 19.7 w F51 – Pan-STARRS 1, Haleakala MPS 722003
2016 08 08.46177 21 55 30.872 -20 31 31.35 19.6 w F51 – Pan-STARRS 1, Haleakala MPS 723442
2016 08 08.47245 21 55 30.314 -20 31 32.88 19.5 w F51 – Pan-STARRS 1, Haleakala MPS 723442
2016 08 08.48317 21 55 29.756 -20 31 34.36 19.6 w F51 – Pan-STARRS 1, Haleakala MPS 723442
2016 08 08.49390 21 55 29.201 -20 31 35.90 19.6 w F51 – Pan-STARRS 1, Haleakala MPS 723442
2016 09 08.39206 21 30 48.882 -20 41 11.73 19.8 w F51 – Pan-STARRS 1, Haleakala MPS 727731
2016 09 08.40311 21 30 48.482 -20 41 10.11 19.9 w F51 – Pan-STARRS 1, Haleakala MPS 727731
2016 09 08.41417 21 30 48.086 -20 41 08.43 19.9 w F51 – Pan-STARRS 1, Haleakala MPS 727731
2016 09 08.42523 21 30 47.686 -20 41 06.78 20.0 w F51 – Pan-STARRS 1, Haleakala MPS 727731
2016 10 19.10629 21 37 27.94 -16 47 58.5 20.4 V G96 – Mt. Lemmon Survey MPS 736219
2016 10 19.11057 21 37 28.18 -16 47 56.8 20.4 V G96 – Mt. Lemmon Survey MPS 736219
2016 10 19.11485 21 37 28.39 -16 47 54.0 20.7 V G96 – Mt. Lemmon Survey MPS 736219
2016 10 19.13809 21 37 29.47 -16 47 42.6 20.4 V G96 – Mt. Lemmon Survey MPS 736219
2016 11 03.22288 21 53 09.287 -14 28 04.66 21.1 w F51 – Pan-STARRS 1, Haleakala MPS 739842
2016 11 03.23581 21 53 10.197 -14 27 56.88 21.2 w F51 – Pan-STARRS 1, Haleakala MPS 739842
2016 11 03.26166 21 53 12.009 -14 27 41.21 21.0 w F51 – Pan-STARRS 1, Haleakala MPS 739842
2018 01 16.36724 08 52 44.097 +24 12 32.65 22.0 w F51 – Pan-STARRS 1, Haleakala MPS 861681
2018 01 16.37893 08 52 43.384 +24 12 35.41 22.1 w F51 – Pan-STARRS 1, Haleakala MPS 861681
2018 01 16.39055 08 52 42.672 +24 12 38.19 21.8 w F51 – Pan-STARRS 1, Haleakala MPS 861681
2020 06 15.45330 19 27 03.307 -30 18 34.89 20.7 w F51 – Pan-STARRS 1, Haleakala MPS 1204800
2020 06 15.46344 19 27 02.885 -30 18 36.97 20.7 w F51 – Pan-STARRS 1, Haleakala MPS 1204800
2020 06 15.48371 19 27 02.076 -30 18 41.54 20.7 w F51 – Pan-STARRS 1, Haleakala MPS 1204800
2020 06 22.44071 19 21 58.965 -30 43 09.38 20.5 w F51 – Pan-STARRS 1, Haleakala MPS 1206812
2020 06 22.44911 19 21 58.518 -30 43 11.22 20.6 w F51 – Pan-STARRS 1, Haleakala MPS 1206812
2020 06 22.45773 19 21 58.069 -30 43 12.91 20.6 w F51 – Pan-STARRS 1, Haleakala MPS 1206812
2020 07 12.36783 19 02 06.961 -31 30 37.57 20.1 w F51 – Pan-STARRS 1, Haleakala MPS 1224760
2020 07 12.38757 19 02 05.623 -31 30 38.97 20.1 w F51 – Pan-STARRS 1, Haleakala MPS 1224760
2020 07 12.39745 19 02 04.950 -31 30 39.56 20.2 w F51 – Pan-STARRS 1, Haleakala MPS 1224760
2022 01 06.329225 07 42 23.937 +28 42 02.75 21.37 w F52 – Pan-STARRS 2, Haleakala MPS 1534782
2022 01 06.331135 07 42 23.807 +28 42 03.10 21.15 w F52 – Pan-STARRS 2, Haleakala MPS 1534782
2022 01 06.356613 07 42 22.026 +28 42 07.06 21.56 w F52 – Pan-STARRS 2, Haleakala MPS 1534782
2022 01 06.358512 07 42 21.896 +28 42 07.46 21.55 w F52 – Pan-STARRS 2, Haleakala MPS 1534782
2022 01 06.368671 07 42 21.187 +28 42 08.88 21.45 w F52 – Pan-STARRS 2, Haleakala MPS 1534782
2022 01 06.380631 07 42 20.337 +28 42 10.92 21.55 w F52 – Pan-STARRS 2, Haleakala MPS 1534782
2022 01 06.382520 07 42 20.219 +28 42 11.10 21.36 w F52 – Pan-STARRS 2, Haleakala MPS 1534782
2022 01 25.306650 07 21 30.078 +29 09 39.89 21.71 w F52 – Pan-STARRS 2, Haleakala MPS 1550357
2022 01 25.318931 07 21 29.312 +29 09 40.20 21.90 w F52 – Pan-STARRS 2, Haleakala MPS 1550357
2022 01 25.331081 07 21 28.573 +29 09 40.42 21.68 w F52 – Pan-STARRS 2, Haleakala MPS 1550357
2022 01 25.343242 07 21 27.817 +29 09 41.02 21.75 w F52 – Pan-STARRS 2, Haleakala MPS 1550357
2022 02 03.281986 07 13 23.933 +29 08 22.19 21.86 w F52 – Pan-STARRS 2, Haleakala MPS 1550357
2022 02 03.292829 07 13 23.367 +29 08 21.90 21.83 w F52 – Pan-STARRS 2, Haleakala MPS 1550357
2022 02 03.303623 07 13 22.864 +29 08 21.53 21.70 w F52 – Pan-STARRS 2, Haleakala MPS 1550357